Weather History for Cincinnati, OH

Change the Weather History Date:

Monday, November 19, 2012

  Actual Average Record
Temperature  
Mean Temperature 44 °F -  
Max Temperature 59 °F 55 °F 75 °F (1985)
Min Temperature 28 °F 37 °F 14 °F (2014)
Degree Days  
Heating Degree Days 22    
Moisture  
Dew Point 33 °F    
Average Humidity 76    
Maximum Humidity 93    
Minimum Humidity 46    
Precipitation  
Precipitation 0.00 in - - ()
Sea Level Pressure  
Sea Level Pressure 30.32 in    
Wind  
Wind Speed 1 mph (ESE)    
Max Wind Speed 6 mph    
Max Gust Speed -    
Visibility 10 miles    
Events      
Averages and records for this station are not official NWS values.
T = Trace of Precipitation, MM = Missing Value Source: NWS Daily Summary

Daily Weather History Graph

Daily Weather History Graph

Search for Another Location

Airport:

Trip Planner

Search our weather history database for the weather conditions in past years. The results will help you decide how hot, cold, wet, or windy it might be!

Date:

Astronomy

Nov. 19, 2012 Rise Set
Actual Time 7:25 AM EST 5:20 PM EST
Civil Twilight 6:56 AM EST 5:49 PM EST
Nautical Twilight 6:24 AM EST 6:21 PM EST
Astronomical Twilight 5:52 AM EST 6:53 PM EST
Moon 12:29 PM EST (11/19) 11:45 PM EST (11/19)
Length of Visible Light 10h 52m
Length of Day
9h 54m
Waxing Crescent, 40% of the Moon is Illuminated
Nov 19
Waxing Crescent
Nov 20
First Quarter
Nov 28
Full
Dec 6
Last Quarter
Dec 13
New

Hourly Weather History & Observations

Time (EST) Temp. Windchill Dew Point Humidity Pressure Visibility Wind Dir Wind Speed Gust Speed Precip Events Conditions
12:53 AM 30.9 °F - 28.0 °F 89% 30.40 in 10.0 mi Calm Calm - N/A   Clear
1:53 AM 28.9 °F - 26.1 °F 89% 30.38 in 10.0 mi Calm Calm - N/A   Clear
2:53 AM 28.9 °F - 27.0 °F 92% 30.39 in 10.0 mi Calm Calm - N/A   Clear
3:53 AM 28.0 °F 24.2 °F 26.1 °F 92% 30.38 in 10.0 mi NE 3.5 mph - N/A   Clear
4:53 AM 28.9 °F - 26.1 °F 89% 30.39 in 10.0 mi Calm Calm - N/A   Clear
5:53 AM 30.0 °F - 28.0 °F 92% 30.38 in 10.0 mi Calm Calm - N/A   Clear
6:53 AM 28.4 °F 24.6 °F 26.6 °F 93% 30.37 in 10.0 mi ESE 3.5 mph - N/A   Clear
7:53 AM 30.0 °F - 27.0 °F 88% 30.39 in 10.0 mi Calm Calm - N/A   Clear
8:53 AM 33.1 °F - 28.9 °F 85% 30.39 in 10.0 mi Calm Calm - N/A   Clear
9:53 AM 37.0 °F - 30.9 °F 79% 30.37 in 10.0 mi Calm Calm - N/A   Clear
10:53 AM 46.0 °F - 35.1 °F 66% 30.38 in 10.0 mi Calm Calm - N/A   Clear
11:53 AM 51.1 °F - 37.0 °F 59% 30.35 in 10.0 mi SW 5.8 mph - N/A   Clear
12:53 PM 55.0 °F - 36.0 °F 49% 30.33 in 10.0 mi Calm Calm - N/A   Clear
1:53 PM 55.4 °F - 37.4 °F 51% 30.30 in 10.0 mi Calm Calm - N/A   Clear
2:53 PM 59.0 °F - 37.9 °F 46% 30.27 in 10.0 mi Calm Calm - N/A   Clear
3:53 PM 59.0 °F - 37.9 °F 46% 30.26 in 10.0 mi Calm Calm - N/A   Clear
4:53 PM 54.0 °F - 37.9 °F 55% 30.25 in 10.0 mi Calm Calm - N/A   Clear
5:53 PM 46.9 °F - 37.9 °F 71% 30.25 in 10.0 mi Calm Calm - N/A   Clear
6:53 PM 43.0 °F - 37.9 °F 82% 30.25 in 10.0 mi Calm Calm - N/A   Clear
7:53 PM 45.0 °F - 37.9 °F 76% 30.25 in 10.0 mi Calm Calm - N/A   Clear
8:53 PM 42.1 °F - 37.0 °F 82% 30.25 in 10.0 mi Calm Calm - N/A   Clear
9:53 PM 42.8 °F - 37.4 °F 81% 30.23 in 10.0 mi Calm Calm - N/A   Clear
10:53 PM 41.0 °F - 37.9 °F 89% 30.22 in 9.0 mi Calm Calm - N/A   Clear
11:53 PM 43.0 °F - 37.9 °F 82% 30.22 in 10.0 mi Calm Calm - N/A   Clear